Regional Weather Roundup
Issued by NWS

Home | Current Version | Previous Version | Text Only | Print | Product List | Glossary Off
Versions: 1 2 3 4 5 6 7 8 9 10 11 12 13 14 15 16 17 18 19 20 21 22 23 24 25 26 27 28 29 30 31 32 33 34 35 36 37 38 39 40 41 42 43 44 45 46 47 48 49 50

000
ASUS43 KIND 272059
RWRIN

WEATHER ROUNDUP FOR INDIANA
NATIONAL WEATHER SERVICE INDIANAPOLIS IN
400 PM EST THU NOV 27 2014

NOTE: "FAIR" INDICATES FEW OR NO CLOUDS BELOW 12,000 FEET WITH NO
SIGNIFICANT WEATHER AND/OR OBSTRUCTIONS TO VISIBILITY.

* - STATION DOES NOT REPORT WEATHER SUCH AS PRECIPITATION OR FOG.

+ - STATION NOT QUALITY CONTROLLED BY THE NATIONAL WEATHER SERVICE.
    USE DATA WITH CAUTION...ESPECIALLY DEWPOINT AND RELATIVE
    HUMIDITY OBSERVATIONS.

INZ001>003-010>013-019-020-272200-
NORTHWEST INDIANA

CITY           SKY/WX    TMP DP  RH WIND       PRES   REMARKS
GARY /AIRPORT/ CLOUDY    28  16  59 W18       30.36R WCI  16
VALPARAISO     NOT AVBL

$$

LMZ046-743>745-272200-
SOUTHERN LAKE MICHIGAN

STATION/POSITION TIME  TEMP WIND        PRES
                       AIR  DIR/SP/G
                 (UTC) (F)  (DEG/KT/KT) (MB)
MICHIGAN CITY    2000   27  260/ 21/ 24   N/A

$$

INZ004-005-014>016-021>024-272200-
NORTH CENTRAL INDIANA

CITY           SKY/WX    TMP DP  RH WIND       PRES   REMARKS
GOSHEN         LGT SNOW  29  25  85 W13       30.26R FOG     WCI  19
SOUTH BEND     LGT SNOW  28  21  75 W15       30.30R WCI  16

$$

INZ006>009-017-018-025>027-272200-
NORTHEAST INDIANA

CITY           SKY/WX    TMP DP  RH WIND       PRES   REMARKS
ANGOLA *+      CLOUDY    30  19  64 NW14      30.20R WCI  20
FORT WAYNE     FLURRIES  30  23  75 W18       30.26R WCI  18

$$

INZ028-029-035-036-043>045-051>053-272200-
WEST CENTRAL INDIANA

CITY           SKY/WX    TMP DP  RH WIND       PRES   REMARKS
GREENCASTLE +  LGT SNOW  28  21  74 W7        30.36R WCI  21
LAFAYETTE      CLOUDY    27  18  69 W13       30.36R WCI  16
TERRE HAUTE    CLOUDY    29  21  72 NW9       30.39R WCI  20

$$

INZ030>032-037>040-046>048-054>057-064-065-272200-
CENTRAL INDIANA

CITY           SKY/WX    TMP DP  RH WIND       PRES   REMARKS
COLUMBUS       CLOUDY    30  21  69 NW12      30.35R WCI  21
INDIANAPOLIS   CLOUDY    27  19  72 NW13      30.34R WCI  16
-EAGLE CREEK   CLOUDY    27  20  75 W13       30.34R WCI  16
KOKOMO *+      CLOUDY    28  21  74 NW21      30.32R WCI  15
MT COMFORT *+  CLOUDY    28  14  54 NW17G24   30.33R WCI  16
SHELBYVILLE    CLOUDY    31  21  66 NW16      30.33R WCI  20

$$

INZ033-034-041-042-049-050-058-059-272200-
EAST CENTRAL INDIANA

CITY           SKY/WX    TMP DP  RH WIND       PRES   REMARKS
MUNCIE         CLOUDY    28  21  75 W17       30.29R WCI  16

$$

INZ060-061-067>069-081>083-085>088-272200-
SOUTHWEST INDIANA

CITY           SKY/WX    TMP DP  RH WIND       PRES   REMARKS
EVANSVILLE     CLOUDY    31  22  69 NW8       30.45S WCI  23
HUNTINGBURG *+ CLOUDY    28  21  74 W9        30.43S WCI  20

$$

INZ062-063-066-070>080-084-089>092-272200-
SOUTH CENTRAL AND SOUTHEAST INDIANA

CITY           SKY/WX    TMP DP  RH WIND       PRES   REMARKS
BLOOMINGTON    CLOUDY    28  20  71 W9        30.36R WCI  19

$$



USA.gov is the U.S. government's official web portal to all federal, state and local government web resources and services.